Terminal Aerodrome Forecast
Issued by NWS

Home | Current Version | Previous Version | Text Only | Print | Product List | Glossary On
Versions: 1 2 3 4 5 6 7 8 9 10 11 12 13 14 15 16 17 18 19 20 21 22 23 24 25 26 27 28
000
FTUS46 KEKA 041847 CCD
TAFCEC
TAF COR
KCEC 041847Z 0418/0518 VRB06KT P6SM SCT250
     FM041900 19006KT P6SM FEW250
     FM050300 VRB03KT 5SM BR OVC005
     FM050800 18002KT 2SM BR OVC002
     FM051200 18003KT 1SM BR OVC002=

USA.gov is the U.S. government's official web portal to all federal, state and local government web resources and services.